Time,TemperatureF,DewpointF,PressureIn,WindDirection,WindDirectionDegrees,WindSpeedMPH,WindSpeedGustMPH,Humidity,HourlyPrecipIn,Conditions,Clouds,dailyrainin,SoftwareType,DateUTC
2013-03-08 00:01:00,30.0,25.0,30.38,East,96,1.0,3.0,83,0.00,,,0.00,,2013-03-08 06:01:00,
2013-03-08 00:11:00,30.0,25.0,30.38,East,96,1.0,3.0,83,0.00,,,0.00,,2013-03-08 06:11:00,
2013-03-08 00:21:00,29.0,25.0,30.38,East,96,1.0,3.0,83,0.00,,,0.00,,2013-03-08 06:21:00,
2013-03-08 00:32:00,29.0,25.0,30.38,East,96,1.0,3.0,83,0.00,,,0.00,,2013-03-08 06:32:00,
2013-03-08 00:42:00,29.0,25.0,30.38,East,96,1.0,3.0,83,0.00,,,0.00,,2013-03-08 06:42:00,
2013-03-08 00:52:00,29.0,25.0,30.39,East,96,1.0,2.0,85,0.00,,,0.00,,2013-03-08 06:52:00,
2013-03-08 01:01:00,29.0,25.0,30.39,East,96,1.0,2.0,85,0.00,,,0.00,,2013-03-08 07:01:00,
2013-03-08 01:11:00,29.0,25.0,30.39,East,96,1.0,2.0,85,0.00,,,0.00,,2013-03-08 07:11:00,
2013-03-08 01:22:00,29.0,25.0,30.40,East,96,2.0,3.0,85,0.00,,,0.00,,2013-03-08 07:22:00,
2013-03-08 01:31:00,29.0,25.0,30.40,East,96,2.0,3.0,85,0.00,,,0.00,,2013-03-08 07:31:00,
2013-03-08 01:42:00,29.0,25.0,30.40,East,96,2.0,3.0,85,0.00,,,0.00,,2013-03-08 07:42:00,
2013-03-08 01:52:00,29.0,25.0,30.40,East,96,2.0,5.0,85,0.00,,,0.00,,2013-03-08 07:52:00,
2013-03-08 02:01:00,29.0,25.0,30.40,East,96,2.0,5.0,85,0.00,,,0.00,,2013-03-08 08:01:00,
2013-03-08 02:11:00,29.0,25.0,30.40,East,96,2.0,5.0,85,0.00,,,0.00,,2013-03-08 08:11:00,
2013-03-08 02:21:00,29.0,25.0,30.40,East,81,3.0,6.0,85,0.00,,,0.00,,2013-03-08 08:21:00,
2013-03-08 02:31:00,29.0,25.0,30.40,East,81,3.0,6.0,85,0.00,,,0.00,,2013-03-08 08:31:00,
2013-03-08 02:42:00,29.0,25.0,30.40,East,81,3.0,6.0,85,0.00,,,0.00,,2013-03-08 08:42:00,
2013-03-08 02:52:00,30.0,26.0,30.39,East,98,2.0,6.0,84,0.00,,,0.00,,2013-03-08 08:52:00,
2013-03-08 03:02:00,30.0,26.0,30.39,East,98,2.0,6.0,84,0.00,,,0.00,,2013-03-08 09:02:00,
2013-03-08 03:11:00,30.0,26.0,30.39,East,98,2.0,6.0,84,0.00,,,0.00,,2013-03-08 09:11:00,
2013-03-08 03:21:00,29.0,25.0,30.39,East,98,2.0,6.0,84,0.00,,,0.00,,2013-03-08 09:21:00,
2013-03-08 03:32:00,29.0,25.0,30.39,East,98,2.0,6.0,84,0.00,,,0.00,,2013-03-08 09:32:00,
2013-03-08 03:42:00,29.0,25.0,30.39,East,98,2.0,6.0,84,0.00,,,0.00,,2013-03-08 09:42:00,
2013-03-08 03:52:00,29.0,25.0,30.39,East,98,3.0,7.0,84,0.00,,,0.00,,2013-03-08 09:52:00,
2013-03-08 04:01:00,29.0,25.0,30.39,East,98,3.0,7.0,84,0.00,,,0.00,,2013-03-08 10:01:00,
2013-03-08 04:11:00,29.0,25.0,30.39,East,98,3.0,7.0,84,0.00,,,0.00,,2013-03-08 10:11:00,
2013-03-08 04:21:00,29.0,25.0,30.39,East,98,2.0,5.0,84,0.00,,,0.00,,2013-03-08 10:21:00,
2013-03-08 04:31:00,29.0,25.0,30.39,East,98,2.0,5.0,84,0.00,,,0.00,,2013-03-08 10:31:00,
2013-03-08 04:42:00,29.0,25.0,30.39,East,98,2.0,5.0,84,0.00,,,0.00,,2013-03-08 10:42:00,
2013-03-08 04:52:00,28.0,24.0,30.41,East,98,1.0,2.0,85,0.00,,,0.00,,2013-03-08 10:52:00,
2013-03-08 05:01:00,28.0,24.0,30.41,East,98,1.0,2.0,85,0.00,,,0.00,,2013-03-08 11:01:00,
2013-03-08 05:11:00,28.0,24.0,30.41,East,98,1.0,2.0,85,0.00,,,0.00,,2013-03-08 11:11:00,
2013-03-08 05:21:00,28.0,24.0,30.41,East,98,1.0,3.0,86,0.00,,,0.00,,2013-03-08 11:21:00,
2013-03-08 05:32:00,28.0,24.0,30.41,East,98,1.0,3.0,86,0.00,,,0.00,,2013-03-08 11:32:00,
2013-03-08 05:42:00,28.0,24.0,30.41,East,98,1.0,3.0,86,0.00,,,0.00,,2013-03-08 11:42:00,
2013-03-08 05:52:00,28.0,25.0,30.41,East,98,3.0,6.0,87,0.00,,,0.00,,2013-03-08 11:52:00,
2013-03-08 06:01:00,28.0,25.0,30.41,East,98,3.0,6.0,87,0.00,,,0.00,,2013-03-08 12:01:00,
2013-03-08 06:11:00,28.0,25.0,30.41,East,98,3.0,6.0,87,0.00,,,0.00,,2013-03-08 12:11:00,
2013-03-08 06:22:00,28.0,25.0,30.42,East,98,1.0,3.0,87,0.00,,,0.00,,2013-03-08 12:22:00,
2013-03-08 06:32:00,28.0,25.0,30.42,East,98,1.0,3.0,87,0.00,,,0.00,,2013-03-08 12:32:00,
2013-03-08 06:43:00,28.0,25.0,30.42,East,98,1.0,3.0,87,0.00,,,0.00,,2013-03-08 12:43:00,
2013-03-08 06:53:00,28.0,25.0,30.42,East,98,2.0,5.0,87,0.00,,,0.00,,2013-03-08 12:53:00,
2013-03-08 07:01:00,28.0,25.0,30.42,East,98,2.0,5.0,87,0.00,,,0.00,,2013-03-08 13:01:00,
2013-03-08 07:11:00,28.0,25.0,30.42,East,98,2.0,5.0,87,0.00,,,0.00,,2013-03-08 13:11:00,
2013-03-08 07:21:00,30.0,26.0,30.43,East,99,3.0,7.0,86,0.00,,,0.00,,2013-03-08 13:21:00,
2013-03-08 07:32:00,30.0,26.0,30.43,East,99,3.0,7.0,86,0.00,,,0.00,,2013-03-08 13:32:00,
2013-03-08 07:42:00,30.0,26.0,30.43,East,99,3.0,7.0,86,0.00,,,0.00,,2013-03-08 13:42:00,
2013-03-08 07:52:00,32.0,27.0,30.43,East,90,4.0,10.0,82,0.00,,,0.00,,2013-03-08 13:52:00,
2013-03-08 08:02:00,32.0,27.0,30.43,East,90,4.0,10.0,82,0.00,,,0.00,,2013-03-08 14:02:00,
2013-03-08 08:11:00,32.0,27.0,30.43,East,90,4.0,10.0,82,0.00,,,0.00,,2013-03-08 14:11:00,
2013-03-08 08:22:00,34.0,28.0,30.43,ESE,118,6.0,12.0,79,0.00,,,0.00,,2013-03-08 14:22:00,
2013-03-08 08:32:00,34.0,28.0,30.43,ESE,118,6.0,12.0,79,0.00,,,0.00,,2013-03-08 14:32:00,
2013-03-08 08:42:00,34.0,28.0,30.43,ESE,118,6.0,12.0,79,0.00,,,0.00,,2013-03-08 14:42:00,
2013-03-08 08:52:00,35.0,28.0,30.43,East,99,5.0,15.0,75,0.00,,,0.00,,2013-03-08 14:52:00,
2013-03-08 09:02:00,35.0,28.0,30.43,East,99,5.0,15.0,75,0.00,,,0.00,,2013-03-08 15:02:00,
2013-03-08 09:11:00,37.0,28.0,30.44,SE,131,7.0,11.0,71,0.00,,,0.00,,2013-03-08 15:11:00,
2013-03-08 09:22:00,37.0,28.0,30.44,SE,131,7.0,11.0,71,0.00,,,0.00,,2013-03-08 15:22:00,
2013-03-08 09:32:00,37.0,28.0,30.44,SE,131,7.0,11.0,71,0.00,,,0.00,,2013-03-08 15:32:00,
2013-03-08 09:43:00,37.0,28.0,30.44,SE,131,7.0,11.0,71,0.00,,,0.00,,2013-03-08 15:43:00,
2013-03-08 09:53:00,38.0,29.0,30.45,ESE,123,7.0,12.0,69,0.00,,,0.00,,2013-03-08 15:53:00,
2013-03-08 10:01:00,38.0,29.0,30.45,ESE,123,7.0,12.0,69,0.00,,,0.00,,2013-03-08 16:01:00,
2013-03-08 10:11:00,38.0,29.0,30.45,ESE,123,7.0,12.0,69,0.00,,,0.00,,2013-03-08 16:11:00,
2013-03-08 10:21:00,39.0,29.0,30.45,SE,133,8.0,15.0,68,0.00,,,0.00,,2013-03-08 16:21:00,
2013-03-08 10:32:00,39.0,29.0,30.45,SE,133,8.0,15.0,68,0.00,,,0.00,,2013-03-08 16:32:00,
2013-03-08 10:42:00,39.0,29.0,30.45,SE,133,8.0,15.0,68,0.00,,,0.00,,2013-03-08 16:42:00,
2013-03-08 10:52:00,40.0,30.0,30.44,SE,139,6.0,13.0,67,0.00,,,0.00,,2013-03-08 16:52:00,
2013-03-08 11:02:00,40.0,30.0,30.44,SE,139,6.0,13.0,67,0.00,,,0.00,,2013-03-08 17:02:00,
2013-03-08 11:11:00,40.0,30.0,30.44,SE,139,6.0,13.0,67,0.00,,,0.00,,2013-03-08 17:11:00,
2013-03-08 11:21:00,40.0,30.0,30.43,ESE,120,6.0,14.0,66,0.00,,,0.00,,2013-03-08 17:21:00,
2013-03-08 11:32:00,40.0,30.0,30.43,ESE,120,6.0,14.0,66,0.00,,,0.00,,2013-03-08 17:32:00,
2013-03-08 11:42:00,40.0,30.0,30.43,ESE,120,6.0,14.0,66,0.00,,,0.00,,2013-03-08 17:42:00,
2013-03-08 11:52:00,41.0,30.0,30.42,ESE,115,8.0,16.0,65,0.00,,,0.00,,2013-03-08 17:52:00,
2013-03-08 12:02:00,41.0,30.0,30.42,ESE,115,8.0,16.0,65,0.00,,,0.00,,2013-03-08 18:02:00,
2013-03-08 12:11:00,41.0,30.0,30.42,ESE,115,8.0,16.0,65,0.00,,,0.00,,2013-03-08 18:11:00,
2013-03-08 12:21:00,43.0,32.0,30.42,East,95,8.0,14.0,66,0.00,,,0.00,,2013-03-08 18:21:00,
2013-03-08 12:32:00,43.0,32.0,30.42,East,95,8.0,14.0,66,0.00,,,0.00,,2013-03-08 18:32:00,
2013-03-08 12:42:00,43.0,32.0,30.42,East,95,8.0,14.0,66,0.00,,,0.00,,2013-03-08 18:42:00,
2013-03-08 12:52:00,44.0,33.0,30.38,SE,143,4.0,15.0,64,0.00,,,0.00,,2013-03-08 18:52:00,
2013-03-08 13:01:00,44.0,33.0,30.38,SE,143,4.0,15.0,64,0.00,,,0.00,,2013-03-08 19:01:00,
2013-03-08 13:11:00,44.0,33.0,30.38,SE,143,4.0,15.0,64,0.00,,,0.00,,2013-03-08 19:11:00,
2013-03-08 13:21:00,45.0,34.0,30.35,ESE,109,8.0,16.0,64,0.00,,,0.00,,2013-03-08 19:21:00,
2013-03-08 13:32:00,45.0,34.0,30.35,ESE,109,8.0,16.0,64,0.00,,,0.00,,2013-03-08 19:32:00,
2013-03-08 13:42:00,45.0,34.0,30.35,ESE,109,8.0,16.0,64,0.00,,,0.00,,2013-03-08 19:42:00,
2013-03-08 13:52:00,45.0,34.0,30.34,ESE,115,7.0,13.0,66,0.00,,,0.00,,2013-03-08 19:52:00,
2013-03-08 14:01:00,45.0,34.0,30.34,ESE,115,7.0,13.0,66,0.00,,,0.00,,2013-03-08 20:01:00,
2013-03-08 14:11:00,45.0,34.0,30.34,ESE,115,7.0,13.0,66,0.00,,,0.00,,2013-03-08 20:11:00,
2013-03-08 14:21:00,46.0,34.0,30.35,ESE,105,9.0,13.0,62,0.00,,,0.00,,2013-03-08 20:21:00,
2013-03-08 14:32:00,46.0,34.0,30.35,ESE,105,9.0,13.0,62,0.00,,,0.00,,2013-03-08 20:32:00,
2013-03-08 14:42:00,46.0,34.0,30.35,ESE,105,9.0,13.0,62,0.00,,,0.00,,2013-03-08 20:42:00,
2013-03-08 14:53:00,46.0,34.0,30.32,East,89,8.0,15.0,62,0.00,,,0.00,,2013-03-08 20:53:00,
2013-03-08 15:02:00,46.0,34.0,30.32,East,89,8.0,15.0,62,0.00,,,0.00,,2013-03-08 21:02:00,
2013-03-08 15:11:00,46.0,34.0,30.32,East,89,8.0,15.0,62,0.00,,,0.00,,2013-03-08 21:11:00,
2013-03-08 15:21:00,48.0,35.0,30.32,SE,130,8.0,13.0,61,0.00,,,0.00,,2013-03-08 21:21:00,
2013-03-08 15:32:00,48.0,35.0,30.32,SE,130,8.0,13.0,61,0.00,,,0.00,,2013-03-08 21:32:00,
2013-03-08 15:42:00,48.0,35.0,30.32,SE,130,8.0,13.0,61,0.00,,,0.00,,2013-03-08 21:42:00,
2013-03-08 15:52:00,48.0,34.0,30.31,SE,132,6.0,15.0,59,0.00,,,0.00,,2013-03-08 21:52:00,
2013-03-08 16:01:00,48.0,34.0,30.31,SE,132,6.0,15.0,59,0.00,,,0.00,,2013-03-08 22:01:00,
2013-03-08 16:11:00,48.0,34.0,30.31,SE,132,6.0,15.0,59,0.00,,,0.00,,2013-03-08 22:11:00,
2013-03-08 16:22:00,48.0,34.0,30.31,SE,145,5.0,12.0,59,0.00,,,0.00,,2013-03-08 22:22:00,
2013-03-08 16:32:00,48.0,34.0,30.31,SE,145,5.0,12.0,59,0.00,,,0.00,,2013-03-08 22:32:00,
2013-03-08 16:42:00,48.0,34.0,30.31,SE,145,5.0,12.0,59,0.00,,,0.00,,2013-03-08 22:42:00,
2013-03-08 16:52:00,47.0,33.0,30.32,SE,137,6.0,11.0,58,0.00,,,0.00,,2013-03-08 22:52:00,
2013-03-08 17:01:00,47.0,33.0,30.32,SE,137,6.0,11.0,58,0.00,,,0.00,,2013-03-08 23:01:00,
2013-03-08 17:12:00,47.0,33.0,30.32,SE,137,6.0,11.0,58,0.00,,,0.00,,2013-03-08 23:12:00,
2013-03-08 17:21:00,47.0,34.0,30.32,ESE,118,5.0,9.0,60,0.00,,,0.00,,2013-03-08 23:21:00,
2013-03-08 17:32:00,47.0,34.0,30.32,ESE,118,5.0,9.0,60,0.00,,,0.00,,2013-03-08 23:32:00,
2013-03-08 17:42:00,47.0,34.0,30.32,ESE,118,5.0,9.0,60,0.00,,,0.00,,2013-03-08 23:42:00,
2013-03-08 17:53:00,45.0,34.0,30.31,East,94,3.0,7.0,64,0.00,,,0.00,,2013-03-08 23:53:00,
2013-03-08 18:02:00,45.0,34.0,30.31,East,94,3.0,7.0,64,0.00,,,0.00,,2013-03-09 00:02:00,
2013-03-08 18:11:00,45.0,34.0,30.31,East,94,3.0,7.0,64,0.00,,,0.00,,2013-03-09 00:11:00,
2013-03-08 18:22:00,45.0,34.0,30.31,East,94,3.0,7.0,64,0.00,,,0.00,,2013-03-09 00:22:00,
2013-03-08 18:32:00,44.0,34.0,30.32,SE,126,2.0,4.0,67,0.00,,,0.00,,2013-03-09 00:32:00,
2013-03-08 18:42:00,44.0,34.0,30.32,SE,126,2.0,4.0,67,0.00,,,0.00,,2013-03-09 00:42:00,
2013-03-08 18:52:00,43.0,34.0,30.32,ESE,114,3.0,9.0,71,0.00,,,0.00,,2013-03-09 00:52:00,
2013-03-08 19:01:00,43.0,34.0,30.32,ESE,114,3.0,9.0,71,0.00,,,0.00,,2013-03-09 01:01:00,
2013-03-08 19:12:00,43.0,34.0,30.32,ESE,114,3.0,9.0,71,0.00,,,0.00,,2013-03-09 01:12:00,
2013-03-08 19:21:00,43.0,34.0,30.32,ESE,114,3.0,9.0,71,0.00,,,0.00,,2013-03-09 01:21:00,
2013-03-08 19:32:00,43.0,34.0,30.32,ESE,114,3.0,9.0,71,0.00,,,0.00,,2013-03-09 01:32:00,
2013-03-08 20:21:00,41.0,34.0,30.31,East,91,2.0,6.0,75,0.00,,,0.00,,2013-03-09 02:21:00,
2013-03-08 20:31:00,41.0,34.0,30.31,East,91,2.0,6.0,75,0.00,,,0.00,,2013-03-09 02:31:00,
2013-03-08 20:41:00,40.0,33.0,30.30,East,89,4.0,7.0,76,0.00,,,0.00,,2013-03-09 02:41:00,
2013-03-08 20:51:00,40.0,33.0,30.30,East,89,4.0,7.0,76,0.00,,,0.00,,2013-03-09 02:51:00,
2013-03-08 21:01:00,40.0,33.0,30.30,East,89,4.0,7.0,76,0.00,,,0.00,,2013-03-09 03:01:00,
2013-03-08 21:11:00,40.0,33.0,30.30,East,89,4.0,7.0,76,0.00,,,0.00,,2013-03-09 03:11:00,
2013-03-08 21:21:00,41.0,33.0,30.28,ENE,73,6.0,9.0,74,0.00,,,0.00,,2013-03-09 03:21:00,
2013-03-08 21:31:00,41.0,33.0,30.28,ENE,73,6.0,9.0,74,0.00,,,0.00,,2013-03-09 03:31:00,
2013-03-08 21:42:00,41.0,33.0,30.28,ENE,73,6.0,9.0,74,0.00,,,0.00,,2013-03-09 03:42:00,
2013-03-08 21:52:00,41.0,33.0,30.29,ESE,102,2.0,9.0,72,0.00,,,0.00,,2013-03-09 03:52:00,
2013-03-08 22:01:00,41.0,33.0,30.29,ESE,102,2.0,9.0,72,0.00,,,0.00,,2013-03-09 04:01:00,
2013-03-08 22:11:00,41.0,33.0,30.29,ESE,102,2.0,9.0,72,0.00,,,0.00,,2013-03-09 04:11:00,
2013-03-08 22:22:00,40.0,33.0,30.29,East,100,3.0,4.0,76,0.00,,,0.00,,2013-03-09 04:22:00,
2013-03-08 22:32:00,40.0,33.0,30.29,East,100,3.0,4.0,76,0.00,,,0.00,,2013-03-09 04:32:00,
2013-03-08 22:42:00,40.0,33.0,30.29,East,100,3.0,4.0,76,0.00,,,0.00,,2013-03-09 04:42:00,
2013-03-08 22:52:00,40.0,33.0,30.28,East,101,3.0,5.0,75,0.00,,,0.00,,2013-03-09 04:52:00,
2013-03-08 23:02:00,40.0,33.0,30.28,East,101,3.0,5.0,75,0.00,,,0.00,,2013-03-09 05:02:00,
2013-03-08 23:12:00,40.0,33.0,30.28,East,101,3.0,5.0,75,0.00,,,0.00,,2013-03-09 05:12:00,
2013-03-08 23:22:00,41.0,33.0,30.27,SE,125,7.0,10.0,72,0.00,,,0.00,,2013-03-09 05:22:00,
2013-03-08 23:31:00,41.0,33.0,30.27,SE,125,7.0,10.0,72,0.00,,,0.00,,2013-03-09 05:31:00,
2013-03-08 23:43:00,41.0,33.0,30.27,SE,125,7.0,10.0,72,0.00,,,0.00,,2013-03-09 05:43:00,
2013-03-08 23:53:00,41.0,32.0,30.26,ESE,112,4.0,8.0,71,0.00,,,0.00,,2013-03-09 05:53:00,